Location: La Brionne
(46.1728°N, 1.7849°E)
Time: 18:31:16
(UTC+00:00)

Cosmos 1544 Rocket - Pass Details

Date: 24 October 2021
Orbit: 603 x 632 km, 82.5° (Epoch: 27 November)

Event Time Altitude Azimuth Distance (km) Brightness Sun altitude
Rises 17:19:51 0° 163° (SSE) 2,911 7.0 -5.7°
Reaches altitude 10° 17:22:14 10° 154° (SSE) 2,009 6.0 -6.1°
Maximum altitude 17:26:14 33° 90° (E) 1,060 4.3 -6.8°
Drops below altitude 10° 17:30:15 10° 27° (NNE) 2,020 5.9 -7.5°
Sets 17:32:38 0° 18° (NNE) 2,930 6.8 -7.9°
